TimeWEST,TemperatureF,Dew PointF,Humidity,Sea Level PressureIn,VisibilityMPH,Wind Direction,Wind SpeedMPH,Gust SpeedMPH,PrecipitationIn,Events,Conditions,WindDirDegrees,DateUTC
12:00 AM,80.6,51.8,37,29.98,-9999.0,ENE,5.8,-,N/A,,Clear,70,2013-06-22 23:00:00
12:30 AM,80.6,51.8,37,29.98,-9999.0,East,3.5,-,N/A,,Clear,80,2013-06-22 23:30:00
1:00 AM,78,52,29,29.89,6,NE,3.5,,,,,50,2013-06-23 00:00:00
1:00 AM,78.8,51.8,39,29.98,-9999.0,NE,4.6,-,N/A,,Clear,40,2013-06-23 00:00:00
1:30 AM,77.0,51.8,41,29.95,-9999.0,Calm,Calm,-,N/A,,Clear,0,2013-06-23 00:30:00
2:00 AM,77.0,53.6,44,29.95,-9999.0,Variable,2.3,-,N/A,,Clear,0,2013-06-23 01:00:00
2:30 AM,75.2,51.8,44,29.95,-9999.0,SW,3.5,-,N/A,,Clear,230,2013-06-23 01:30:00
3:00 AM,77.0,53.6,44,29.95,-9999.0,SSW,5.8,-,N/A,,Clear,210,2013-06-23 02:00:00
3:30 AM,75.2,51.8,44,29.95,-9999.0,SW,5.8,-,N/A,,Clear,220,2013-06-23 02:30:00
4:00 AM,74,52,35,29.87,6,SW,6.9,,,,,220,2013-06-23 03:00:00
4:00 AM,73.4,51.8,47,29.92,-9999.0,SW,6.9,-,N/A,,Clear,230,2013-06-23 03:00:00
4:30 AM,73.4,51.8,47,29.95,-9999.0,SW,6.9,-,N/A,,Clear,230,2013-06-23 03:30:00
5:00 AM,71.6,51.8,50,29.95,-9999.0,WSW,3.5,-,N/A,,Clear,240,2013-06-23 04:00:00
5:30 AM,69.8,51.8,53,29.95,-9999.0,WSW,5.8,-,N/A,,Clear,240,2013-06-23 04:30:00
6:00 AM,69.8,51.8,53,29.95,-9999.0,WSW,6.9,-,N/A,,Clear,240,2013-06-23 05:00:00
6:30 AM,68.0,51.8,56,29.95,-9999.0,West,3.5,-,N/A,,Clear,270,2013-06-23 05:30:00
7:00 AM,69,52,45,29.90,6,WSW,3.5,,,,,250,2013-06-23 06:00:00
7:00 AM,68.0,51.8,56,29.95,-9999.0,Variable,2.3,-,N/A,,Clear,0,2013-06-23 06:00:00
7:30 AM,69.8,53.6,56,29.95,-9999.0,Variable,2.3,-,N/A,,Clear,0,2013-06-23 06:30:00
8:00 AM,73.4,53.6,50,29.95,-9999.0,West,3.5,-,N/A,,Clear,270,2013-06-23 07:00:00
8:30 AM,77.0,51.8,41,29.95,-9999.0,Variable,2.3,-,N/A,,Clear,0,2013-06-23 07:30:00
9:00 AM,78.8,51.8,39,29.95,-9999.0,Variable,2.3,-,N/A,,Clear,0,2013-06-23 08:00:00
9:30 AM,78.8,53.6,42,29.95,-9999.0,Variable,2.3,-,N/A,,Clear,0,2013-06-23 08:30:00
10:00 AM,82,54,27,29.87,6,West,2.3,,,,,260,2013-06-23 09:00:00
10:00 AM,82.4,53.6,37,29.95,-9999.0,Variable,2.3,-,N/A,,Clear,0,2013-06-23 09:00:00
10:30 AM,84.2,55.4,37,29.95,-9999.0,North,4.6,-,N/A,,Clear,350,2013-06-23 09:30:00
11:00 AM,86.0,53.6,33,29.95,-9999.0,NW,4.6,-,N/A,,Clear,320,2013-06-23 10:00:00
11:30 AM,87.8,55.4,33,29.95,-9999.0,Variable,2.3,-,N/A,,Clear,0,2013-06-23 10:30:00
12:00 PM,91.4,55.4,29,29.95,-9999.0,NNW,4.6,-,N/A,,Clear,340,2013-06-23 11:00:00
12:30 PM,93.2,55.4,28,29.95,-9999.0,NW,6.9,-,N/A,,Clear,310,2013-06-23 11:30:00
1:00 PM,94,54,17,29.82,6,NNW,5.8,,,,,330,2013-06-23 12:00:00
1:00 PM,95.0,55.4,26,29.95,-9999.0,NNW,5.8,-,N/A,,Clear,330,2013-06-23 12:00:00
1:30 PM,96.8,53.6,23,29.95,-9999.0,NW,6.9,-,N/A,,Clear,320,2013-06-23 12:30:00
2:00 PM,96.8,51.8,22,29.92,-9999.0,NNW,5.8,-,N/A,,Clear,330,2013-06-23 13:00:00
2:30 PM,100.4,53.6,21,29.92,-9999.0,Variable,3.5,-,N/A,,Clear,0,2013-06-23 13:30:00
3:00 PM,102.2,50.0,17,29.92,6.2,NNW,6.9,-,N/A,,Partly Cloudy,330,2013-06-23 14:00:00
3:30 PM,102.2,51.8,18,29.92,6.2,WNW,5.8,-,N/A,,Partly Cloudy,300,2013-06-23 14:30:00
4:00 PM,103,50,10,29.76,6,WNW,8.1,,,,Scattered Clouds,300,2013-06-23 15:00:00
4:00 PM,104.0,51.8,17,29.92,6.2,Variable,6.9,-,N/A,,Partly Cloudy,0,2013-06-23 15:00:00
4:30 PM,105.8,51.8,17,29.89,6.2,West,10.4,-,N/A,,Partly Cloudy,280,2013-06-23 15:30:00
5:00 PM,105.8,50.0,15,29.89,6.2,Variable,8.1,-,N/A,,Unknown,0,2013-06-23 16:00:00
5:30 PM,105.8,50.0,15,29.89,6.2,West,9.2,-,N/A,,Unknown,260,2013-06-23 16:30:00
6:00 PM,104.0,51.8,17,29.89,6.2,West,11.5,-,N/A,,Partly Cloudy,260,2013-06-23 17:00:00
6:30 PM,102.2,55.4,21,29.89,6.2,West,16.1,-,N/A,,Partly Cloudy,260,2013-06-23 17:30:00
7:00 PM,101,58,15,29.75,6,WSW,15.0,,,,Scattered Clouds,250,2013-06-23 18:00:00
7:00 PM,100.4,59.0,25,29.89,6.2,West,15.0,-,N/A,,Partly Cloudy,260,2013-06-23 18:00:00
7:30 PM,98.6,59.0,27,29.89,6.2,West,13.8,-,N/A,,Partly Cloudy,260,2013-06-23 18:30:00
8:00 PM,96.8,59.0,28,29.89,6.2,WSW,13.8,-,N/A,,Partly Cloudy,240,2013-06-23 19:00:00
8:30 PM,95.0,59.0,30,29.92,6.2,WSW,9.2,-,N/A,,Partly Cloudy,240,2013-06-23 19:30:00
9:00 PM,95.0,55.4,26,29.92,6.2,NNW,10.4,-,N/A,,Partly Cloudy,340,2013-06-23 20:00:00
9:30 PM,93.2,53.6,26,29.92,6.2,NNW,6.9,-,N/A,,Partly Cloudy,340,2013-06-23 20:30:00
10:00 PM,87,59,29,29.85,6,SW,10.4,,,,Scattered Clouds,230,2013-06-23 21:00:00
10:00 PM,87.8,59.0,38,29.95,6.2,SW,9.2,-,N/A,,Partly Cloudy,230,2013-06-23 21:00:00
10:30 PM,84.2,60.8,45,29.95,6.2,SW,9.2,-,N/A,,Partly Cloudy,230,2013-06-23 21:30:00
11:00 PM,82.4,59.0,45,29.95,6.2,WSW,6.9,-,N/A,,Partly Cloudy,240,2013-06-23 22:00:00
11:30 PM,82.4,59.0,45,29.95,-9999.0,SW,5.8,-,N/A,,Clear,230,2013-06-23 22:30:00